Upernavik Sermeq

KL  EN  DA
ASIAQ
Weather Now GREENLAND SURVEY
Updated [WGT/WGST] Temperature [°C] Wind [m/s] Air pressure [hPa] Relative humidity [%] Precipitation [mm]
Present Wind chill Speed Max
12.05 18:00-3,1-6,62,4 ⇙n/a99795n/a
12.05 17:00-2,5-5,42,1 ⇙n/a99783n/a
12.05 16:00-3,3-6,11,9 ⇙n/a99695n/a
12.05 15:00-4,2-7,31,9 ⇙n/a99798n/a
12.05 14:00-5,0-7,11,3 ⇙n/a99796n/a
12.05 13:00-5,30,00,6 ⇒n/a99697n/a
12.05 12:00-5,20,00,5 ⇒n/a99699n/a
12.05 11:00-5,70,00,4 ⇗n/a99699n/a
12.05 10:00-6,40,01,2 ⇒n/a99699n/a
12.05 09:00-6,4-8,71,3 ⇒n/a99699n/a
12.05 08:00-6,5-9,51,7 ⇒n/a99599n/a
12.05 07:00-5,9-9,11,9 ⇒n/a99599n/a
12.05 06:00-5,7-8,81,8 ⇒n/a99599n/a
12.05 05:00-5,5-8,71,9 ⇒n/a99599n/a
12.05 04:00-5,1-8,42,0 ⇒n/a99499n/a
12.05 03:00-4,4-7,82,2 ⇘n/a99499n/a
12.05 02:00-3,6-6,72,0 ⇘n/a994100n/a
12.05 01:00-3,0-5,81,9 ⇒n/a994100n/a
12.05 00:00-2,60,01,2 ⇒n/a993100n/a
11.05 23:00-2,30,01,2 ⇗n/a993100n/a
11.05 22:00-2,20,01,1 ⇗n/a99299n/a
11.05 21:00-1,60,00,3 ⇒n/a99299n/a
11.05 20:00-1,5-4,22,0 ⇙n/a99299n/a
11.05 19:00-1,2-4,02,1 ⇙n/a99399n/a
11.05 18:00-1,20,01,2 ⇙n/a99397n/a
Position: (72.8932,-54.2955)

[Back]